Rochelle, IL

4:23 AM CST on November 13, 2019 (GMT -0600)
Rochelle

Weather History for KRPJ - September, 2019

Change the Weather History Date:

Thursday, September 26, 2019

  Actual Average (KRFD) Record (KRFD)
Temperature  
Mean Temperature 60 °F -  
Max Temperature 70 °F 70 °F 92 °F (1920)
Min Temperature 49 °F 46 °F 26 °F (1926)
Degree Days  
Heating Degree Days 6    
Growing Degree Days 10 (Base 50)    
Moisture  
Dew Point 49 °F    
Average Humidity 72    
Maximum Humidity 99    
Minimum Humidity 37    
Precipitation  
Precipitation 0.00 in - - ()
Sea Level Pressure  
Sea Level Pressure 29.95 in    
Wind  
Wind Speed 7 mph ()    
Max Wind Speed 16 mph    
Max Gust Speed 25 mph    
Visibility 10.0 miles    
Events      
Averages and records for this station are not official NWS values.
T = Trace of Precipitation, MM = Missing Value Source: Averaged Metar Reports

Daily Weather History Graph

Daily Weather History Graph

Search for Another Location

Airport or City:

Astronomy

Sep. 26, 2019 Rise Set
Actual Time 6:47 AM CDT 6:46 PM CDT
Civil Twilight 6:19 AM CDT 7:14 PM CDT
Nautical Twilight 5:47 AM CDT 7:47 PM CDT
Astronomical Twilight 5:14 AM CDT 8:20 PM CDT
Moon 3:50 AM CDT (9/26) 6:03 PM CDT (9/26)
Length of Visible Light 12h 54m
Length of Day
11h 59m
Waning Crescent, 6% of the Moon is Illuminated
Sep 26
Waning Crescent
Sep 28
New
Oct 5
First Quarter
Oct 13
Full
Oct 21
Last Quarter

Hourly Weather History & Observations

Time (CDT) Temp. Dew Point Humidity Pressure Visibility Wind Dir Wind Speed Gust Speed Precip Events Conditions
12:15 AM 61.0 °F 54.7 °F 80% 29.91 in 10.0 mi West 9.2 mph - N/A   Scattered Clouds
12:35 AM 60.4 °F 55.2 °F 83% 29.91 in 10.0 mi West 8.1 mph - N/A   Scattered Clouds
12:55 AM 60.8 °F 54.5 °F 80% 29.90 in 10.0 mi West 6.9 mph - N/A   Clear
1:15 AM 60.8 °F 53.8 °F 78% 29.89 in 10.0 mi WNW 5.8 mph - N/A   Scattered Clouds
1:35 AM 60.3 °F 53.1 °F 77% 29.90 in 10.0 mi WNW 8.1 mph - N/A   Clear
1:55 AM 59.4 °F 52.7 °F 79% 29.90 in 10.0 mi WNW 6.9 mph - N/A   Clear
2:15 AM 59.2 °F 52.3 °F 78% 29.90 in 10.0 mi WNW 8.1 mph - N/A   Clear
2:35 AM 59.4 °F 51.4 °F 75% 29.89 in 10.0 mi WNW 8.1 mph - N/A   Clear
2:55 AM 58.6 °F 51.8 °F 78% 29.89 in 10.0 mi WNW 8.1 mph - N/A   Clear
3:15 AM 57.2 °F 50.9 °F 79% 29.90 in 10.0 mi WNW 6.9 mph - N/A   Clear
3:35 AM 54.5 °F 50.9 °F 88% 29.91 in 10.0 mi West 6.9 mph - N/A   Clear
3:55 AM 53.4 °F 50.9 °F 91% 29.92 in 10.0 mi WSW 6.9 mph - N/A   Clear
4:15 AM 52.7 °F 50.2 °F 91% 29.93 in 10.0 mi West 6.9 mph - N/A   Clear
4:35 AM 51.8 °F 50.0 °F 94% 29.94 in 10.0 mi West 6.9 mph - N/A   Clear
4:55 AM 51.3 °F 49.5 °F 94% 29.94 in 10.0 mi West 6.9 mph - N/A   Clear
5:15 AM 50.9 °F 49.5 °F 95% 29.95 in 10.0 mi West 6.9 mph - N/A   Clear
5:35 AM 50.2 °F 49.3 °F 97% 29.95 in 10.0 mi West 5.8 mph - N/A   Clear
5:55 AM 50.2 °F 49.3 °F 97% 29.96 in 10.0 mi West 6.9 mph - N/A   Clear
6:15 AM 50.4 °F 49.5 °F 97% 29.96 in 10.0 mi West 6.9 mph - N/A   Clear
6:35 AM 49.5 °F 49.1 °F 99% 29.97 in 10.0 mi West 6.9 mph - N/A   Clear
6:55 AM 49.5 °F 49.1 °F 99% 29.98 in 10.0 mi West 6.9 mph - N/A   Clear
7:15 AM 49.5 °F 49.1 °F 99% 29.99 in 10.0 mi WNW 6.9 mph - N/A   Clear
7:35 AM 50.9 °F 50.2 °F 97% 29.99 in 10.0 mi WNW 6.9 mph - N/A   Clear
7:55 AM 52.3 °F 51.1 °F 95% 29.99 in 10.0 mi West 9.2 mph - N/A   Clear
8:15 AM 53.6 °F 51.4 °F 92% 29.99 in 10.0 mi West 8.1 mph - N/A   Clear
8:35 AM 55.4 °F 52.0 °F 88% 29.99 in 10.0 mi West 6.9 mph - N/A   Clear
8:55 AM 56.7 °F 50.9 °F 81% 30.00 in 10.0 mi WNW 6.9 mph - N/A   Clear
9:15 AM 58.5 °F 51.1 °F 76% 30.00 in 10.0 mi WNW 6.9 mph - N/A   Clear
9:35 AM 60.6 °F 50.2 °F 68% 30.00 in 10.0 mi WNW 8.1 mph - N/A   Clear
9:55 AM 61.9 °F 49.1 °F 63% 30.01 in 10.0 mi WNW 9.2 mph - N/A   Clear
10:15 AM 63.5 °F 46.8 °F 54% 30.01 in 10.0 mi WNW 9.2 mph - N/A   Clear
10:35 AM 64.9 °F 46.4 °F 51% 30.02 in 10.0 mi West 10.4 mph - N/A   Clear
10:55 AM 65.8 °F 45.0 °F 47% 30.02 in 10.0 mi West 13.8 mph - N/A   Clear
11:15 AM 66.7 °F 42.8 °F 42% 30.02 in 10.0 mi WNW 11.5 mph 19.6 mph N/A   Clear
11:35 AM 66.7 °F 44.6 °F 45% 30.02 in 10.0 mi West 12.7 mph - N/A   Clear
11:55 AM 67.5 °F 44.6 °F 44% 30.02 in 10.0 mi West 10.4 mph - N/A   Clear
12:15 PM 68.5 °F 46.4 °F 45% 30.01 in 10.0 mi West 15.0 mph - N/A   Clear
12:35 PM 68.4 °F 45.0 °F 43% 30.01 in 10.0 mi West 13.8 mph 19.6 mph N/A   Clear
12:55 PM 69.1 °F 43.5 °F 40% 30.00 in 10.0 mi WNW 12.7 mph 25.3 mph N/A   Clear
1:15 PM 69.6 °F 43.7 °F 39% 30.00 in 10.0 mi West 12.7 mph 20.7 mph N/A   Clear
1:35 PM 70.0 °F 42.6 °F 37% 29.99 in 10.0 mi WNW 15.0 mph - N/A   Clear
1:55 PM 70.3 °F 45.5 °F 41% 29.98 in 10.0 mi West 16.1 mph 19.6 mph N/A   Clear
2:15 PM 70.7 °F 44.2 °F 39% 29.97 in 10.0 mi West 13.8 mph - N/A   Clear
2:35 PM 70.3 °F 44.8 °F 40% 29.97 in 10.0 mi West 13.8 mph - N/A   Clear
2:55 PM 70.7 °F 45.7 °F 41% 29.96 in 10.0 mi West 10.4 mph 16.1 mph N/A   Clear
3:15 PM 70.9 °F 45.3 °F 40% 29.95 in 10.0 mi West 12.7 mph 17.3 mph N/A   Clear
3:35 PM 70.2 °F 45.3 °F 41% 29.94 in 10.0 mi WSW 9.2 mph - N/A   Clear
3:55 PM 70.7 °F 44.8 °F 39% 29.94 in 10.0 mi WSW 11.5 mph - N/A   Clear
4:15 PM 70.2 °F 45.7 °F 41% 29.94 in 10.0 mi SW 4.6 mph - N/A   Clear
4:35 PM 69.8 °F 45.3 °F 41% 29.93 in 10.0 mi WSW 8.1 mph - N/A   Clear
4:55 PM 69.3 °F 46.9 °F 45% 29.93 in 10.0 mi WSW 9.2 mph - N/A   Clear
5:15 PM 67.6 °F 47.1 °F 48% 29.93 in 10.0 mi West 8.1 mph - N/A   Clear
5:35 PM 67.3 °F 48.9 °F 52% 29.94 in 10.0 mi WSW 6.9 mph - N/A   Clear
5:55 PM 66.7 °F 49.8 °F 54% 29.94 in 10.0 mi SW 4.6 mph - N/A   Clear
6:15 PM 64.6 °F 52.3 °F 64% 29.94 in 10.0 mi SW 3.5 mph - N/A   Clear
6:35 PM 63.7 °F 51.4 °F 64% 29.92 in 10.0 mi Calm Calm - N/A   Clear
6:55 PM 58.3 °F 54.3 °F 87% 29.92 in 10.0 mi SSE 5.8 mph - N/A   Clear
7:15 PM 57.2 °F 53.2 °F 87% 29.92 in 10.0 mi South 4.6 mph - N/A   Clear
7:35 PM 56.3 °F 52.7 °F 88% 29.92 in 10.0 mi SSE 5.8 mph - N/A   Clear
7:55 PM 54.9 °F 52.7 °F 92% 29.92 in 10.0 mi South 3.5 mph - N/A   Clear
8:15 PM 55.0 °F 51.8 °F 89% 29.93 in 10.0 mi SSE 6.9 mph - N/A   Clear
8:35 PM 54.7 °F 52.0 °F 91% 29.93 in 10.0 mi SSE 5.8 mph - N/A   Clear
8:55 PM 55.4 °F 52.7 °F 91% 29.93 in 10.0 mi SSE 4.6 mph - N/A   Clear
9:15 PM 55.6 °F 52.7 °F 90% 29.92 in 10.0 mi SSE 3.5 mph - N/A   Clear
9:35 PM 56.3 °F 51.8 °F 85% 29.91 in 10.0 mi SSE 6.9 mph - N/A   Clear
9:55 PM 57.4 °F 51.4 °F 81% 29.92 in 10.0 mi South 4.6 mph - N/A   Clear
10:15 PM 56.5 °F 51.4 °F 83% 29.93 in 10.0 mi South 4.6 mph - N/A   Scattered Clouds
10:35 PM 55.4 °F 52.7 °F 91% 29.93 in 10.0 mi SSE 3.5 mph - N/A   Clear
10:55 PM 54.7 °F 52.3 °F 92% 29.92 in 10.0 mi South 4.6 mph - N/A   Clear
11:15 PM 54.1 °F 51.8 °F 92% 29.91 in 10.0 mi SSE 3.5 mph - N/A   Clear
11:35 PM 53.1 °F 51.6 °F 95% 29.91 in 10.0 mi South 3.5 mph - N/A   Clear
11:55 PM 52.7 °F 51.3 °F 95% 29.90 in 10.0 mi South 5.8 mph - N/A   Clear